Location: Brno
(49.2000°N, 16.6330°E)
Time: 18:24:43
(UTC+02:00)

ISS - Visible Passes

Search period start: 28 July 2014 00:00
Search period end: 07 August 2014 00:00
Orbit: 411 x 420 km, 51.6° (Epoch: 28 July)

Date Brightness Start Highest point End Pass type
(mag) Time Alt. Az. Time Alt. Az. Time Alt. Az.
28 Jul -1.1 01:14:17 18° E 01:14:17 18° E 01:15:22 10° ENE visible
28 Jul -2.8 02:47:09 26° W 02:48:49 62° N 02:52:11 10° ENE visible
28 Jul -2.7 04:22:27 10° WNW 04:25:48 61° N 04:29:08 10° E visible
29 Jul -3.2 01:59:57 75° NNW 01:59:59 75° NNW 02:03:21 10° ENE visible
29 Jul -2.5 03:33:36 10° WNW 03:36:55 55° N 03:40:15 10° E visible
30 Jul -1.7 01:12:47 28° ENE 01:12:47 28° ENE 01:14:31 10° ENE visible
30 Jul -2.5 02:45:38 17° WNW 02:48:02 54° N 02:51:21 10° ENE visible
30 Jul -3.2 04:21:34 10° WNW 04:24:57 88° NNE 04:28:19 10° ESE visible
31 Jul -0.4 00:25:38 10° ENE 00:25:38 10° ENE 00:25:41 10° ENE visible
31 Jul -2.7 01:58:29 46° NW 01:59:09 56° N 02:02:29 10° ENE visible
31 Jul -3.0 03:32:44 10° WNW 03:36:06 70° NNE 03:39:28 10° E visible
01 Aug -2.0 01:11:26 36° ENE 01:11:26 36° ENE 01:13:37 10° ENE visible
01 Aug -2.7 02:44:18 13° WNW 02:47:14 59° N 02:50:34 10° E visible
01 Aug -3.1 04:20:41 10° WNW 04:23:58 51° SSW 04:27:15 10° SE visible
02 Aug -0.5 00:24:35 11° ENE 00:24:35 11° ENE 00:24:46 10° ENE visible
02 Aug -2.6 01:57:29 40° NW 01:58:20 54° N 02:01:39 10° E visible
02 Aug -3.4 03:31:49 10° WNW 03:35:11 74° SSW 03:38:32 10° ESE visible
02 Aug -1.7 21:53:47 10° S 21:55:26 18° SSE 21:55:26 18° SSE visible
03 Aug -1.2 01:11:22 22° ENE 01:11:22 22° ENE 01:12:45 10° ENE visible
03 Aug -3.3 02:44:21 23° WNW 02:46:21 84° NNE 02:49:43 10° ESE visible
03 Aug -2.2 04:19:59 10° W 04:22:49 25° SW 04:25:39 10° SSE visible
03 Aug -1.3 21:06:10 10° SSE 21:07:37 12° SE 21:09:04 10° ESE visible
03 Aug -3.3 22:40:29 10° SW 22:43:45 57° SSE 22:45:08 30° E visible
04 Aug -0.9 00:17:13 10° W 00:18:09 17° W 00:18:09 17° W visible
04 Aug -0.7 02:00:20 14° E 02:00:20 14° E 02:00:50 10° E visible
04 Aug -2.8 03:33:29 34° WSW 03:34:07 37° SSW 03:37:15 10° SE visible
04 Aug -2.8 21:51:52 10° SW 21:55:00 39° SSE 21:58:09 10° ENE visible
04 Aug -3.0 23:28:18 10° W 23:31:38 66° NNW 23:32:21 48° NE visible
05 Aug -2.2 21:03:26 10° SSW 21:06:16 26° SE 21:09:08 10° E visible
05 Aug -3.3 22:39:24 10° WSW 22:42:45 82° NNW 22:45:36 14° ENE visible
06 Aug -1.8 00:16:22 10° WNW 00:18:29 33° WNW 00:18:29 33° WNW visible
06 Aug -3.4 21:50:34 10° WSW 21:53:54 76° SSE 21:57:15 10° ENE visible
06 Aug -2.6 23:27:27 10° W 23:30:45 54° N 23:31:25 44° NE visible
